User: anonymous   Login
Location: Unspecified
(0.0000°N, 0.0000°E)
Time: 10:06:51
(UTC+00:00)
Language:

STARLINK-6125 - Orbit

View from above orbital plane
View from above orbital plane
View from above satellite
View from above satellite

Ground track
Ground track

The orbit is defined by the following mean orbital elements,

1 57114U          26145.18016554 +.00000000 +00000-0 +22010-4 0 00008
2 57114  43.0013 209.3249 0002244 320.2403  39.8283 15.26742875    06
Epoch (UTC): 25 May 2026 04:19:26
Eccentricity: 0.0002244
inclination: 43.0013°
perigee height: 484 km
apogee height: 487 km
right ascension of ascending node: 209.3249°
argument of perigee: 320.2403°
revolutions per day: 15.26742875
mean anomaly at epoch: 39.8283°

The dashed part of the orbit path shows where the satellite is in the earth's shadow,  

DLR